[[{"header":{"parameterUnit":"m.s-1","parameterCategory":1,"la1":30.2991,"la2":30.254,"lo1":-89.0895,"lo2":-89.0444,"dy":0.0017,"dx":0.0017,"nx":28,"ny":28,"refTime":"2024-05-17T09:00:00:Z","depth":0,"parameterNumber":2,"parameterNumberName":"U-component_of_WINDS"},"data":[0,0,0,0,0,0,0,0,0,0,0,0,0,0,0,0,0,0,0,0,0,0,0,0,0,0,0,0,0,0,0,0,0,0,0,0,0,0,0,0,0,0,0,0,0,0,0,0,0,0,0,0,0,0,0,0,0,0,2.2716,2.2718,0,2.2841,2.2843,2.2844,2.2843,2.2841,2.2839,2.2838,2.2966,2.2971,2.2976,0,0,0,0,0,0,0,0,0,0,0,0,0,2.2476,2.248,2.2716,2.2718,2.2719,2.2841,2.2843,2.2845,2.2843,2.2841,2.2839,2.2837,2.2964,2.297,2.2976,0,0,0,0,0,0,0,0,0,0,0,0,0,2.2588,2.2482,2.2716,2.2733,2.2736,2.2841,2.2843,2.2845,2.2843,2.2841,2.2838,2.2836,2.2963,2.297,2.2977,2.3073,0,0,2.3,2.3003,0,0,0,0,0,0,0,0,2.2582,2.2597,2.2729,2.2732,2.2735,2.2824,2.2805,2.2921,2.2844,2.2803,2.2838,2.2835,2.2921,2.2932,2.296,2.3079,2.3084,2.3,2.3005,2.3008,2.301,0,0,0,0,0,0,0,2.2574,2.2592,2.2766,2.2731,2.2735,2.2735,2.2748,2.2827,2.2874,2.2806,2.2806,2.2821,2.2922,2.2953,2.2963,2.3086,2.3,2.3007,2.3011,2.3014,2.329,2.3292,0,0,0,0,0,0,2.2563,2.2585,2.2762,2.2769,2.2651,2.2741,2.2756,2.2798,2.2873,2.2882,2.2823,2.2821,2.2942,2.2955,2.2968,2.3085,2.3008,2.3015,2.3019,2.3287,2.329,2.3293,0,0,0,0,0,0,2.2558,2.2579,2.2757,2.2678,2.27,2.2748,2.2795,2.2802,2.2833,2.2886,2.2895,2.2846,2.294,2.2957,2.3047,2.309,2.3018,2.3025,2.3283,2.3288,2.3292,2.3321,0,0,0,0,0,0,2.2551,2.2577,2.2614,2.2678,2.2704,2.2834,2.2798,2.2806,2.2846,2.2844,2.291,2.2919,2.294,2.3036,2.3054,2.3099,2.3031,2.328,2.3285,2.329,2.3316,2.3325,2.3333,0,0,0,0,0,2.2542,2.2617,2.2615,2.2637,2.2751,2.2836,2.2851,2.2873,2.2849,2.2887,2.2921,2.2917,2.3082,2.3045,2.3066,2.3113,2.3277,2.3284,2.329,2.3312,2.3323,2.3333,0,0,0,0,0,0,2.2556,2.2625,2.2625,2.2723,2.2773,2.2836,2.2884,2.2885,2.2943,2.2939,2.2964,2.2979,2.3068,2.31,2.3057,2.321,2.3177,2.3187,2.3186,2.3197,2.3206,2.3197,2.3037,0,0,0,0,0,2.257,2.2633,2.269,2.2771,2.2796,2.2836,2.2873,2.2886,2.294,2.2961,2.3002,2.3054,2.3118,2.3159,2.3221,2.332,2.3335,2.3363,2.3371,2.3378,2.3388,2.3443,2.3456,2.3314,2.3314,2.3314,0,0,2.26,2.2646,2.2684,2.2775,2.2816,2.288,2.2854,2.2923,2.2971,2.2972,2.3059,2.309,2.315,2.3245,2.3289,2.3274,2.343,2.3386,2.3392,2.3397,2.3451,2.3464,2.3476,2.3319,2.3318,2.3317,0,0,2.2688,2.2729,2.2801,2.2843,2.2905,2.2931,2.2948,2.301,2.3031,2.3119,2.3121,2.3178,2.3287,2.333,2.3366,2.347,2.3469,2.3489,2.3535,2.3588,2.3599,2.3609,2.3647,2.366,2.3498,2.3498,2.3498,0,2.2718,2.2816,2.2838,2.2908,2.2948,2.2951,2.3024,2.3063,2.3142,2.317,2.3152,2.3289,2.3329,2.3434,2.346,2.3489,2.3509,2.3482,2.3596,2.3606,2.3616,2.3652,2.3666,2.3501,2.35,2.35,2.35,0,2.2849,2.2917,2.2967,2.3044,2.309,2.3161,2.3194,2.3237,2.3246,2.3273,2.3362,2.3411,2.3483,2.3508,2.3518,2.3615,2.3603,2.359,2.3558,2.3631,2.3665,2.3679,2.3504,2.3503,2.3502,2.3502,0,0,2.295,2.3038,2.3056,2.3091,2.316,2.3213,2.3284,2.3354,2.3391,2.3445,2.3505,2.3597,2.3586,2.3627,2.3641,2.3687,2.3767,2.3668,2.367,2.3685,2.3877,2.3887,2.3903,2.3766,2.3769,2.3771,2.3872,0,2.3046,2.3173,2.3195,2.3306,2.3369,2.3373,2.3435,2.3483,2.3511,2.3568,2.3598,2.3663,2.3643,2.3667,2.3714,2.3748,2.3806,2.374,2.3823,2.3825,2.3808,2.3921,2.3932,2.4025,2.3886,2.3888,2.389,0,2.3175,2.3233,2.335,2.3411,2.3438,2.3493,2.3559,2.3614,2.3669,2.3686,2.3732,2.374,2.3814,2.3777,2.388,2.3834,2.3869,2.3891,2.3895,2.3904,2.3862,2.3933,2.4055,2.407,2.3911,2.391,2.3908,0,2.3237,2.3344,2.3428,2.3458,2.3531,2.357,2.3602,2.3655,2.3696,2.3753,2.378,2.3845,2.3881,2.3931,2.3957,2.3928,2.4057,2.4023,2.4073,2.4073,2.4101,2.4099,2.4231,2.4122,2.4122,2.4122,2.4122,0,2.3342,2.3413,2.3457,2.3509,2.359,2.3614,2.3693,2.3724,2.3771,2.3829,2.3836,2.389,2.3921,2.3979,2.4,2.4081,2.4097,2.4113,2.4118,2.4113,2.4111,2.4136,2.4131,2.4126,2.4125,2.4124,2.4123,0,2.3425,2.3457,2.3549,2.3611,2.3628,2.3685,2.3737,2.3788,2.3815,2.3888,2.3906,2.3949,2.4018,2.4049,2.4134,2.4147,2.4241,2.424,2.4222,2.4224,2.4273,2.4268,2.4426,2.4448,2.4324,2.4326,2.4327,0,2.349,2.3546,2.3613,2.3653,2.3686,2.375,2.3791,2.3817,2.386,2.3928,2.397,2.4039,2.4096,2.4206,2.4245,2.431,2.4311,2.4362,2.4321,2.4315,2.4313,2.4309,2.4315,2.437,2.4371,2.4372,2.4373,0,2.3603,2.3616,2.3676,2.3742,2.3792,2.3845,2.3897,2.3928,2.3963,2.4011,2.4082,2.4126,2.4213,2.4281,2.4349,2.4381,2.4383,2.4386,2.4401,2.4397,2.4384,2.4392,2.4243,2.4382,2.4381,2.438,2.438,2.438,2.368,2.3729,2.3785,2.3851,2.3893,2.3942,2.3992,2.4026,2.4085,2.4159,2.417,2.4246,2.43,2.439,2.4425,2.4485,2.4472,2.4494,2.45,2.4505,2.4508,2.4374,2.4497,2.4497,2.4497,2.4496,2.4496,0,2.3793,2.3829,2.389,2.3963,2.4015,2.4012,2.4069,2.4113,2.418,2.423,2.4286,2.4368,2.4434,2.4478,2.4545,2.4584,2.4587,2.4601,2.4598,2.4606,2.4515,2.4496,2.4598,2.4598,2.4598,2.4598,2.4598,2.4598,2.3858,2.3942,2.3962,2.4066,2.4102,2.4176,2.4209,2.4254,2.4294,2.4385,2.4441,2.4468,2.4516,2.4587,2.4647,2.4658,2.4683,2.4698,2.4708,2.4623,2.4612,2.4602,2.4584,2.4703,2.4703,2.4794,2.4795,2.4796]},{"header":{"parameterUnit":"m.s-1","parameterCategory":1,"la1":30.2991,"la2":30.254,"lo1":-89.0895,"lo2":-89.0444,"dy":0.0017,"dx":0.0017,"nx":28,"ny":28,"refTime":"2024-05-17T09:00:00:Z","depth":0,"parameterNumber":3,"parameterNumberName":"V-component_of_WINDS"},"data":[0,0,0,0,0,0,0,0,0,0,0,0,0,0,0,0,0,0,0,0,0,0,0,0,0,0,0,0,0,0,0,0,0,0,0,0,0,0,0,0,0,0,0,0,0,0,0,0,0,0,0,0,0,0,0,0,0,0,7.4421,7.4422,0,7.4503,7.4504,7.4505,7.4456,7.4454,7.4452,7.445,7.4524,7.4528,7.4532,0,0,0,0,0,0,0,0,0,0,0,0,0,7.4212,7.4217,7.4421,7.4422,7.4423,7.4503,7.4504,7.4505,7.4457,7.4454,7.4451,7.4449,7.4523,7.4527,7.4532,0,0,0,0,0,0,0,0,0,0,0,0,0,7.4299,7.4218,7.4421,7.4409,7.4409,7.4503,7.4504,7.4505,7.4457,7.4454,7.4451,7.4447,7.4521,7.4527,7.4533,7.464,0,0,7.4552,7.4555,0,0,0,0,0,0,0,0,7.4294,7.4307,7.441,7.441,7.441,7.4466,7.4457,7.455,7.4458,7.4439,7.445,7.4446,7.4507,7.4514,7.4537,7.4644,7.4647,7.4552,7.4556,7.4559,7.4561,0,0,0,0,0,0,0,7.4289,7.4303,7.4453,7.4411,7.4411,7.4396,7.4405,7.4475,7.4491,7.444,7.4437,7.4448,7.4506,7.4531,7.4538,7.4648,7.4552,7.4558,7.4562,7.4564,7.4845,7.4849,0,0,0,0,0,0,7.4285,7.4298,7.445,7.4456,7.4343,7.4403,7.4412,7.4451,7.449,7.4493,7.4451,7.4445,7.4522,7.4531,7.454,7.4668,7.4559,7.4565,7.4568,7.4841,7.4846,7.485,0,0,0,0,0,0,7.428,7.4299,7.4447,7.4376,7.4394,7.441,7.4454,7.4455,7.4479,7.4498,7.4499,7.4474,7.4519,7.4532,7.4616,7.467,7.4567,7.4573,7.4837,7.4843,7.4848,7.4924,0,0,0,0,0,0,7.4275,7.4298,7.4341,7.4378,7.4398,7.4525,7.4458,7.4459,7.4491,7.4485,7.452,7.4522,7.4518,7.4607,7.4622,7.4676,7.4578,7.4832,7.484,7.4846,7.4917,7.4932,7.4944,0,0,0,0,0,7.4267,7.4357,7.4344,7.4362,7.4453,7.4528,7.4539,7.4535,7.4496,7.4538,7.455,7.4521,7.4661,7.4616,7.4633,7.469,7.4829,7.4837,7.4846,7.4911,7.4929,7.4944,0,0,0,0,0,0,7.4323,7.4362,7.4347,7.4452,7.4488,7.452,7.4573,7.4554,7.4599,7.4591,7.4581,7.4589,7.4677,7.4691,7.464,7.4794,7.4738,7.4751,7.4782,7.4799,7.4813,7.4807,7.4583,0,0,0,0,0,7.4349,7.441,7.4438,7.4528,7.4547,7.4557,7.459,7.4584,7.4618,7.4632,7.465,7.4682,7.4733,7.4767,7.4815,7.4918,7.4924,7.4965,7.4979,7.499,7.5001,7.5055,7.5073,7.4878,7.4878,7.4878,0,0,7.44,7.4428,7.4467,7.454,7.4567,7.4627,7.457,7.4636,7.468,7.4641,7.4723,7.4737,7.4771,7.4866,7.4908,7.4881,7.5056,7.5001,7.501,7.5014,7.5066,7.5084,7.5101,7.4884,7.4882,7.4882,0,0,7.4525,7.4553,7.4631,7.466,7.4702,7.4708,7.4726,7.4762,7.4771,7.4853,7.4825,7.4875,7.4963,7.4989,7.5014,7.5148,7.5123,7.5163,7.5235,7.5288,7.5304,7.5317,7.5364,7.5381,7.5174,7.5174,7.5174,0,7.4582,7.4676,7.4672,7.4742,7.4773,7.4744,7.4821,7.4847,7.4901,7.4923,7.4891,7.5002,7.5023,7.5123,7.5156,7.5177,7.5196,7.516,7.5302,7.5316,7.5328,7.5373,7.5391,7.5179,7.5178,7.5178,7.5177,0,7.4744,7.4809,7.4866,7.4923,7.4961,7.5033,7.5038,7.5076,7.5066,7.5074,7.5157,7.5182,7.5234,7.5257,7.5247,7.5355,7.5336,7.5304,7.5247,7.5352,7.5393,7.541,7.5185,7.5184,7.5182,7.5181,0,0,7.4907,7.4962,7.4982,7.5008,7.5052,7.51,7.5169,7.5223,7.5256,7.5293,7.535,7.5426,7.5396,7.5424,7.5416,7.5463,7.5566,7.5425,7.5425,7.545,7.5685,7.5709,7.5729,7.555,7.5553,7.5556,7.5682,0,7.5034,7.516,7.5159,7.5274,7.5332,7.5304,7.5364,7.5396,7.5405,7.5453,7.5461,7.5515,7.5473,7.5489,7.5534,7.5544,7.5613,7.5535,7.56,7.5602,7.5593,7.5751,7.5777,7.5896,7.5698,7.5701,7.5703,0,7.52,7.5247,7.5369,7.5404,7.5428,7.5483,7.5532,7.5579,7.5613,7.5616,7.5648,7.5632,7.5699,7.5641,7.5732,7.5679,7.5705,7.5714,7.5718,7.5724,7.5659,7.5761,7.5933,7.5951,7.5729,7.5727,7.5725,0,7.5306,7.5399,7.5484,7.5506,7.5549,7.5588,7.5607,7.5638,7.567,7.5712,7.5732,7.578,7.5806,7.5841,7.5838,7.5796,7.593,7.5872,7.5932,7.5933,7.5962,7.596,7.6141,7.5979,7.5979,7.5978,7.5978,0,7.5448,7.5524,7.5532,7.5585,7.5667,7.5663,7.5744,7.5758,7.5786,7.5838,7.5815,7.5863,7.5856,7.5904,7.5901,7.5976,7.5988,7.599,7.5989,7.5993,7.5992,7.6009,7.6001,7.5983,7.5982,7.5981,7.598,0,7.5581,7.559,7.5681,7.5715,7.5725,7.5784,7.5811,7.5859,7.5866,7.5932,7.5947,7.5957,7.6012,7.6012,7.6074,7.6072,7.6164,7.6153,7.6154,7.6152,7.6212,7.6206,7.641,7.6436,7.6258,7.6259,7.6261,0,7.5672,7.573,7.577,7.5805,7.5828,7.5884,7.5917,7.5914,7.5949,7.5992,7.6034,7.6088,7.613,7.6219,7.623,7.6276,7.6266,7.6334,7.6272,7.6275,7.6266,7.6263,7.6268,7.6346,7.6348,7.6349,7.6351,0,7.5831,7.5833,7.5884,7.5937,7.5979,7.6019,7.6056,7.6085,7.6086,7.6126,7.6184,7.6217,7.6281,7.6333,7.6379,7.6394,7.6372,7.637,7.6386,7.6391,7.6389,7.6391,7.6187,7.6365,7.6364,7.6363,7.6362,7.6361,7.5945,7.5995,7.6032,7.6089,7.6118,7.6153,7.62,7.6214,7.6263,7.6317,7.6311,7.6375,7.6405,7.6464,7.6483,7.6531,7.6507,7.6531,7.6537,7.6543,7.6549,7.6382,7.6539,7.6538,7.6538,7.6538,7.6537,0,7.6103,7.6126,7.6179,7.6233,7.6278,7.6256,7.6296,7.6333,7.6391,7.6422,7.6466,7.6531,7.6581,7.6596,7.6645,7.668,7.667,7.6692,7.6689,7.6693,7.6568,7.6549,7.6699,7.6699,7.6699,7.6699,7.6699,7.6699,7.6191,7.6274,7.628,7.6376,7.6396,7.6462,7.6486,7.6517,7.6543,7.6618,7.6661,7.6671,7.6695,7.6745,7.679,7.6792,7.6811,7.6837,7.6835,7.6718,7.6702,7.6687,7.6669,7.6841,7.6841,7.6956,7.6957,7.6958]}]]